GW0587 Weather Reports


time (UTC)temp
C
wind
direction
speed
KPH
gust
KPH
rain 1hr
cm
rain 24hr
cm
rain mn
cm
humidity
%
barometer
mb
20260510204550 27 86 3.2 6.4 0.00 0.00 0.00 50 1015.6
20260510203049 28 82 0.0 4.8 0.00 0.00 0.00 50 1016.0
20260510201544 27 99 1.6 4.8 0.00 0.00 0.00 51 1016.0
20260510200046 27 0 0.0 6.4 0.00 0.00 0.00 51 1016.3
20260510194549 27 48 1.6 6.4 0.00 0.00 0.00 52 1016.4
20260510193048 27 0 1.6 8.0 0.00 0.00 0.00 53 1016.3
20260510191545 27 0 1.6 6.4 0.00 0.00 0.00 53 1016.4
20260510190049 27 0 3.2 8.0 0.00 0.00 0.00 53 1016.5
20260510184542 28 0 0.0 0.0 0.00 0.00 0.00 52 1016.6
20260510183048 27 0 0.0 3.2 0.00 0.00 0.00 51 1016.5
20260510181546 27 0 0.0 4.8 0.00 0.00 0.00 50 1016.5
20260510180100 27 0 1.6 4.8 0.00 0.00 0.00 52 1016.5
20260510174547 27 0 0.0 4.8 0.00 0.00 0.00 54 1016.5
20260510173047 27 5 1.6 6.4 0.00 0.00 0.00 52 1016.7
20260510171543 27 40 1.6 6.4 0.00 0.00 0.00 56 1017.0
20260510170048 27 340 0.0 4.8 0.00 0.00 0.00 55 1016.9
20260510164550 27 214 0.0 4.8 0.00 0.00 0.00 61 1017.0
20260510163041 26 0 0.0 4.8 0.00 0.00 0.00 59 1017.0
20260510161547 26 0 1.6 8.0 0.00 0.00 0.00 61 1017.0
20260510160045 26 214 0.0 3.2 0.00 0.00 0.00 63 1017.0
20260510154550 27 199 0.0 4.8 0.00 0.00 0.00 61 1017.0
20260510153041 27 168 1.6 8.0 0.00 0.00 0.00 61 1016.8
20260510151557 26 100 0.0 6.4 0.00 0.00 0.00 64 1016.8
20260510150045 26 0 0.0 3.2 0.00 0.00 0.00 65 1016.8
20260510144602 25 0 1.6 6.4 0.00 0.00 0.00 69 1017.0
20260510143056 24 0 0.0 6.4 0.00 0.00 0.00 72 1017.0
20260510141546 24 0 0.0 3.2 0.00 0.00 0.00 73 1016.7
20260510140049 23 279 0.0 4.8 0.00 0.00 0.00 76 1016.6
20260510134545 22 302 3.2 11.3 0.00 0.00 0.00 78 1016.5
20260510133040 21 271 0.0 6.4 0.00 0.00 0.00 83 1016.7
20260510131549 20 0 0.0 4.8 0.00 0.00 0.00 84 1016.5
20260510130051 19 0 0.0 0.0 0.00 0.00 0.00 86 1016.4
20260510124542 18 0 0.0 0.0 0.00 0.00 0.00 88 1016.4
20260510123046 17 0 0.0 0.0 0.00 0.00 0.00 89 1016.5
20260510121541 16 0 0.0 0.0 0.00 0.00 0.00 91 1016.3
20260510120052 15 0 0.0 0.0 0.00 0.00 0.00 91 1016.2
20260510114546 15 0 0.0 0.0 0.00 0.00 0.00 91 1016.2
20260510113052 15 0 0.0 0.0 0.00 0.00 0.00 90 1016.2
20260510111542 14 0 0.0 0.0 0.00 0.00 0.00 90 1015.9
20260510110047 14 0 0.0 0.0 0.00 0.00 0.00 89 1015.7
20260510104547 14 0 0.0 0.0 0.00 0.00 0.00 89 1015.4
20260510103049 15 0 0.0 0.0 0.00 0.00 0.00 89 1015.1
20260510101555 15 0 0.0 0.0 0.00 0.00 0.00 88 1014.9
20260510100047 15 0 0.0 0.0 0.00 0.00 0.00 88 1014.9
20260510094546 15 0 0.0 0.0 0.00 0.00 0.00 87 1014.8
20260510093045 15 0 0.0 0.0 0.00 0.00 0.00 87 1014.5
20260510091548 15 0 0.0 0.0 0.00 0.00 0.00 87 1014.4
20260510090056 15 0 0.0 0.0 0.00 0.00 0.00 86 1014.1
20260510084545 15 0 0.0 0.0 0.00 0.00 0.00 85 1014.0
20260510083042 15 0 0.0 0.0 0.00 0.00 0.00 85 1014.1
20260510081542 15 0 0.0 0.0 0.00 0.00 0.00 84 1014.0
20260510080052 15 0 0.0 0.0 0.00 0.00 0.00 83 1013.8
20260510074551 15 0 0.0 0.0 0.00 0.00 0.00 82 1013.9
20260510073108 15 0 0.0 0.0 0.00 0.00 0.00 81 1013.9
20260510071549 15 0 0.0 0.0 0.00 0.00 0.00 80 1013.9
20260510070053 15 0 0.0 0.0 0.00 0.00 0.00 80 1013.9
20260510064559 15 0 0.0 0.0 0.00 0.00 0.00 79 1014.0
20260510063048 15 0 0.0 0.0 0.00 0.00 0.00 79 1013.8
20260510061548 15 0 0.0 0.0 0.00 0.00 0.00 78 1013.5
20260510060050 15 0 0.0 0.0 0.00 0.00 0.00 77 1013.3
20260510054546 15 0 0.0 0.0 0.00 0.00 0.00 77 1013.4
20260510053047 15 0 0.0 0.0 0.00 0.00 0.00 76 1013.3
20260510051549 16 0 0.0 0.0 0.00 0.00 0.00 75 1013.3
20260510050039 16 0 0.0 0.0 0.00 0.00 0.00 74 1013.2
20260510044543 16 0 0.0 0.0 0.00 0.00 0.00 73 1013.3
20260510043047 16 0 0.0 0.0 0.00 0.00 0.00 72 1013.2
20260510041548 16 0 0.0 0.0 0.00 0.00 0.00 71 1013.3
20260510040047 17 0 0.0 0.0 0.00 0.00 0.00 71 1013.4
20260510034559 17 0 0.0 0.0 0.00 0.00 0.00 70 1013.5
20260510033052 17 0 0.0 0.0 0.00 0.00 0.00 69 1013.4
20260510031547 17 0 0.0 0.0 0.00 0.00 0.00 68 1013.4
20260510030047 18 0 0.0 0.0 0.00 0.00 0.00 66 1013.4
20260510024545 18 0 0.0 0.0 0.00 0.00 0.00 65 1013.3
20260510023041 18 0 0.0 0.0 0.00 0.00 0.00 63 1013.1
20260510021558 19 0 0.0 0.0 0.00 0.00 0.00 60 1012.9
20260510020047 20 0 0.0 0.0 0.00 0.00 0.00 60 1012.6
20260510014552 20 0 0.0 0.0 0.00 0.00 0.00 57 1012.4
20260510013046 21 0 0.0 0.0 0.00 0.00 0.00 55 1012.2
20260510011544 22 0 0.0 0.0 0.00 0.00 0.00 54 1012.0
20260510010045 22 0 0.0 0.0 0.00 0.00 0.00 52 1011.8
20260510004542 23 0 0.0 0.0 0.00 0.00 0.00 52 1011.7
20260510003103 24 0 0.0 0.0 0.00 0.00 0.00 47 1011.5
20260510001546 25 0 0.0 1.6 0.00 0.00 0.00 45 1011.3
20260510000053 26 0 0.0 3.2 0.00 0.00 0.00 41 1011.2
20260509234544 26 350 0.0 3.2 0.00 0.00 0.00 37 1011.1
20260509233041 26 0 0.0 3.2 0.00 0.00 0.00 35 1011.0
20260509231541 26 0 1.6 4.8 0.00 0.00 0.00 34 1010.9
20260509230041 27 0 0.0 6.4 0.00 0.00 0.00 32 1010.9
20260509224545 27 338 1.6 6.4 0.00 0.00 0.00 33 1010.7
20260509223046 27 335 1.6 9.7 0.00 0.00 0.00 35 1010.7
20260509221559 27 23 0.0 11.3 0.00 0.00 0.00 36 1010.8
20260509220045 27 11 0.0 6.4 0.00 0.00 0.00 36 1010.9
20260509214557 27 0 0.0 8.0 0.00 0.00 0.00 37 1010.8
20260509213041 27 346 0.0 6.4 0.00 0.00 0.00 37 1010.9
20260509211549 27 184 0.0 9.7 0.00 0.00 0.00 32 1010.9
20260509210049 28 0 0.0 8.0 0.00 0.00 0.00 35 1011.0